{"data":{"norad_id":66221,"epoch":"2026-05-24T16:24:45.970560Z","epoch_age_seconds":102595,"freshness":"FRESH","line1":"1 66221U 25244R   26144.68386540  .00018314  00000+0  62887-3 0  9991","line2":"2 66221  53.1568 236.9914 0001239  73.1334 286.9803 15.30203350 33292","mean_motion":15.3020335,"eccentricity":0.0001239,"inclination_deg":53.1568,"raan_deg":236.9914,"arg_perigee_deg":73.1334,"mean_anomaly_deg":286.9803,"bstar":0.00062887,"rev_number":3329,"period_min":94.105139686173,"perigee_km":474.35593785932,"apogee_km":476.05419602351,"semimajor_km":6853.3420669414,"source":"CELESTRAK","updated_at":"2026-05-25T13:38:21.129858Z"}}